Location: Normandy Village
(37.8755°N, 122.2655°W)
Time: 05:37:14
(UTC+00:00)

ASTRO E2 - Pass Details

Date: 22 September 2019
Orbit: 511 x 517 km, 31.4° (Epoch: 19 October)

Event Time Altitude Azimuth Distance (km) Brightness Sun altitude
Exits shadow 12:25:51 29° 197° (SSW) 944 3.7 -18.5°
Maximum altitude 12:26:13 30° 186° (S) 932 3.8 -18.5°
Drops below altitude 10° 12:29:43 10° 124° (SE) 1,725 5.9 -17.8°
Sets 12:32:08 0° 113° (ESE) 2,611 7.1 -17.3°
